Flag Weather past 2 weeks in Campo Grande, Mato Grosso Do Sul, Brazil

Now
66 °F

Mixture of precip. Partly cloudy.


Feels Like: 66 °F
Forecast: 67 / 82 °F
Wind: 10 mph from South

Location: Campo Grande Aeroporto

Current Time: Nov 22, 2014 at 10:21:51 PM

Latest Report: Nov 22, 2014 at 10:00 PM


Visibility: N/A

Pressure: N/A

Humidity: 100%

Dew point: 66 °F

Location of Campo GrandeLocation

Historic Weather in Campo Grande — Graph

°F

Campo Grande temperature yesterday

Maximum temperature yesterday: 88 °F (at 3:00 PM)
Minimum temperature yesterday: 70 °F (at 6:00 AM)
Average temperature yesterday: 78 °F

Past Weeks' High & Low Weather Summary

 TemperatureHumidityPressure
High91 °F (Nov 18, 2:00 PM)100% (Nov 8, 9:00 AM)30.07 "Hg (Nov 8, 9:00 AM)
Low46 °F (Nov 8, 9:00 AM)29% (Nov 18, 1:00 PM)29.71 "Hg (Nov 11, 5:00 PM)
Average75 °F69%29.90 "Hg
* Reported Nov 7 9:00 PM — Nov 22 9:10 PM, Campo Grande, Weather by CustomWeather, © 2014

Note: Actual official high and low records may vary slightly from our data, if they occured in-between our weather recording intervals... More about our weather records

Advertising

Campo Grande weather history for previous 24 hours

 ConditionsComfort  
Time TempWeatherWind HumidityBarometerVisibility
9:10 PM
Nov 22
68 °FScattered showers. Passing clouds.8 mph94%29.92 "HgN/A
9:00 PM68 °FScattered showers. Partly cloudy.8 mph94%29.92 "HgN/A
8:00 PM70 °FPartly cloudy.6 mph88%29.89 "HgN/A
7:00 PM70 °FPassing clouds.7 mph88%29.86 "HgN/A
6:00 PM70 °FPassing clouds.10 mph88%29.86 "HgN/A
5:00 PM68 °FScattered clouds.7 mph94%29.89 "HgN/A
4:00 PM68 °FBroken clouds.6 mph88%29.95 "HgN/A
3:00 PM68 °FBroken clouds.8 mph94%29.98 "HgN/A
2:00 PM68 °FLight rain. Partly sunny.10 mph94%29.98 "Hg4 mi
1:00 PM66 °FRain. Partly sunny.12 mph94%29.98 "Hg2 mi
12:00 PM66 °FHeavy rain. Partly sunny.9 mph94%30.01 "Hg1 mi
11:00 AM66 °FRain. Partly sunny.10 mph94%30.01 "Hg3 mi
10:10 AM68 °FRain. Partly sunny.21 mph88%30.01 "Hg4 mi
10:00 AM70 °FLight rain. Partly sunny.9 mph94%N/A4 mi
9:00 AM72 °FScattered showers. Broken clouds.12 mph88%N/AN/A
8:00 AM72 °FPartly sunny.13 mph94%29.95 "HgN/A
7:00 AM72 °FLight rain. Partly sunny.13 mph94%N/A6 mi
6:00 AM73 °FPartly sunny.12 mph83%29.92 "HgN/A
5:00 AM73 °FScattered clouds.12 mph83%29.89 "HgN/A
4:00 AM73 °FThundershowers. Passing clouds.12 mph83%29.89 "HgN/A
3:00 AM73 °FThundershowers. Passing clouds.6 mph83%N/AN/A
2:00 AM73 °FThundershowers. Passing clouds.13 mph83%N/AN/A
1:00 AM75 °FThundershowers. Passing clouds.13 mph78%N/AN/A
12:00 AM77 °FPassing clouds.13 mph69%29.95 "HgN/A
11:00 PM
Nov 21
77 °FThundershowers. Passing clouds.10 mph79%N/AN/A
10:00 PM77 °FThundershowers. Passing clouds.6 mph79%N/AN/A
Weather by CustomWeather, © 2014

See weather overviewHow to use our weather pages